| time (UTC) | temp F | wind direction | speed MPH | gust MPH | rain 1hr in | rain 24hr in | rain mn in | humidity % | barometer mb |
| 20260905233059 | 51 | 176 | 0.0 | 2.0 | 0.00 | 0.00 | 0.00 | 96 | 1007.3 |
| 20260905232124 | 51 | 0.0 | 0.0 | 0.00 | 0.00 | 0.00 | 96 | 1007.3 | |
| 20260905231036 | 51 | 0.0 | 0.0 | 0.00 | 0.00 | 0.00 | 96 | 1007.3 | |
| 20260905230059 | 51 | 0.0 | 0.0 | 0.00 | 0.00 | 0.00 | 97 | 1007.4 | |
| 20260905225123 | 51 | 0.0 | 0.0 | 0.00 | 0.00 | 0.00 | 98 | 1007.2 | |
| 20260905224037 | 50 | 0.0 | 0.0 | 0.00 | 0.00 | 0.00 | 98 | 1007.3 | |
| 20260905223100 | 49 | 0.0 | 0.0 | 0.00 | 0.00 | 0.00 | 98 | 1007.1 | |
| 20260905222143 | 50 | 0.0 | 0.0 | 0.00 | 0.00 | 0.00 | 98 | 1007.1 | |
| 20260905221036 | 50 | 0.0 | 0.0 | 0.00 | 0.00 | 0.00 | 98 | 1006.9 | |
| 20260905220059 | 50 | 0.0 | 0.0 | 0.00 | 0.00 | 0.00 | 97 | 1006.9 | |
| 20260905215123 | 49 | 0.0 | 0.0 | 0.00 | 0.00 | 0.00 | 97 | 1006.6 | |
| 20260905214055 | 49 | 0.0 | 0.0 | 0.00 | 0.00 | 0.00 | 96 | 1006.6 | |
| 20260905213100 | 50 | 0.0 | 0.0 | 0.00 | 0.00 | 0.00 | 96 | 1006.6 | |
| 20260905212124 | 50 | 0.0 | 0.0 | 0.00 | 0.00 | 0.00 | 96 | 1006.6 | |
| 20260905211036 | 51 | 0.0 | 0.0 | 0.00 | 0.00 | 0.00 | 95 | 1006.4 | |
| 20260905210059 | 51 | 0.0 | 0.0 | 0.00 | 0.00 | 0.00 | 95 | 1006.3 | |
| 20260905205123 | 51 | 0.0 | 0.0 | 0.00 | 0.00 | 0.00 | 95 | 1006.2 | |
| 20260905204036 | 52 | 0.0 | 0.0 | 0.00 | 0.00 | 0.00 | 94 | 1006.1 | |
| 20260905203100 | 52 | 0.0 | 0.0 | 0.00 | 0.00 | 0.00 | 93 | 1006.0 | |
| 20260905202124 | 53 | 0.0 | 0.0 | 0.00 | 0.00 | 0.00 | 92 | 1006.0 | |
| 20260905201056 | 54 | 0.0 | 0.0 | 0.00 | 0.00 | 0.00 | 91 | 1005.8 | |
| 20260905200100 | 54 | 228 | 0.0 | 1.0 | 0.00 | 0.00 | 0.00 | 90 | 1006.0 |
| 20260905195124 | 54 | 0.0 | 0.0 | 0.00 | 0.00 | 0.00 | 91 | 1005.8 | |
| 20260905194036 | 54 | 0.0 | 0.0 | 0.00 | 0.00 | 0.00 | 91 | 1005.7 | |
| 20260905193100 | 54 | 264 | 0.0 | 1.0 | 0.00 | 0.00 | 0.00 | 91 | 1005.6 |
| 20260905192124 | 54 | 0.0 | 0.0 | 0.00 | 0.00 | 0.00 | 91 | 1005.4 | |
| 20260905191036 | 54 | 0.0 | 0.0 | 0.00 | 0.00 | 0.00 | 91 | 1005.3 | |
| 20260905190120 | 54 | 0.0 | 0.0 | 0.00 | 0.00 | 0.00 | 92 | 1005.3 | |
| 20260905185123 | 54 | 0.0 | 0.0 | 0.00 | 0.00 | 0.00 | 92 | 1005.3 | |
| 20260905184036 | 54 | 0.0 | 0.0 | 0.00 | 0.00 | 0.00 | 92 | 1005.1 | |
| 20260905183100 | 53 | 0.0 | 0.0 | 0.00 | 0.00 | 0.00 | 92 | 1005.1 | |
| 20260905182124 | 54 | 0.0 | 0.0 | 0.00 | 0.00 | 0.00 | 92 | 1004.8 | |
| 20260905181035 | 54 | 0.0 | 0.0 | 0.00 | 0.00 | 0.00 | 90 | 1004.9 | |
| 20260905180100 | 54 | 0.0 | 0.0 | 0.00 | 0.00 | 0.00 | 91 | 1004.6 | |
| 20260905175124 | 54 | 282 | 1.0 | 1.0 | 0.00 | 0.00 | 0.00 | 91 | 1004.3 |
| 20260905174036 | 54 | 238 | 1.0 | 3.0 | 0.00 | 0.00 | 0.00 | 91 | 1004.2 |
| 20260905173120 | 55 | 253 | 1.0 | 2.0 | 0.00 | 0.00 | 0.00 | 89 | 1004.3 |
| 20260905172124 | 55 | 289 | 1.0 | 1.0 | 0.00 | 0.00 | 0.00 | 88 | 1003.9 |
| 20260905171036 | 56 | 256 | 2.0 | 3.0 | 0.00 | 0.00 | 0.00 | 86 | 1003.9 |
| 20260905170100 | 56 | 280 | 1.0 | 2.0 | 0.00 | 0.00 | 0.00 | 81 | 1003.9 |
| 20260905165143 | 57 | 246 | 1.0 | 2.0 | 0.00 | 0.00 | 0.00 | 78 | 1003.6 |
| 20260905164037 | 57 | 298 | 1.0 | 2.0 | 0.00 | 0.00 | 0.00 | 79 | 1003.5 |
| 20260905163059 | 57 | 198 | 0.0 | 2.0 | 0.00 | 0.00 | 0.00 | 79 | 1003.5 |
| 20260905162124 | 56 | 336 | 1.0 | 2.0 | 0.00 | 0.00 | 0.00 | 81 | 1003.2 |
| 20260905161036 | 57 | 298 | 2.0 | 2.0 | 0.00 | 0.00 | 0.00 | 81 | 1003.1 |
| 20260905160120 | 57 | 295 | 1.0 | 2.0 | 0.00 | 0.00 | 0.00 | 82 | 1002.9 |
| 20260905155144 | 58 | 275 | 2.0 | 3.0 | 0.00 | 0.00 | 0.00 | 82 | 1003.0 |
| 20260905154036 | 58 | 317 | 2.0 | 5.0 | 0.00 | 0.00 | 0.00 | 81 | 1003.0 |
| 20260905153120 | 58 | 251 | 1.0 | 2.0 | 0.00 | 0.00 | 0.00 | 81 | 1003.0 |
| 20260905152124 | 58 | 278 | 2.0 | 2.0 | 0.00 | 0.00 | 0.00 | 80 | 1002.9 |
| 20260905151036 | 59 | 266 | 2.0 | 3.0 | 0.00 | 0.00 | 0.00 | 81 | 1002.6 |
| 20260905150100 | 60 | 282 | 1.0 | 2.0 | 0.00 | 0.00 | 0.00 | 79 | 1002.6 |
| 20260905145123 | 62 | 242 | 2.0 | 3.0 | 0.00 | 0.00 | 0.00 | 75 | 1002.4 |
| 20260905144056 | 61 | 292 | 2.0 | 2.0 | 0.00 | 0.00 | 0.00 | 73 | 1002.1 |
| 20260905143100 | 62 | 348 | 2.0 | 4.0 | 0.00 | 0.00 | 0.00 | 71 | 1002.0 |
| 20260905142124 | 63 | 167 | 1.0 | 3.0 | 0.00 | 0.00 | 0.00 | 65 | 1001.8 |
| 20260905141036 | 62 | 88 | 1.0 | 1.0 | 0.00 | 0.00 | 0.00 | 67 | 1001.7 |
| 20260905140100 | 62 | 114 | 1.0 | 2.0 | 0.00 | 0.00 | 0.00 | 68 | 1001.5 |
| 20260905135144 | 62 | 1 | 1.0 | 2.0 | 0.00 | 0.00 | 0.00 | 68 | 1001.5 |
| 20260905134116 | 61 | 58 | 2.0 | 3.0 | 0.00 | 0.00 | 0.00 | 69 | 1001.4 |
| 20260905133100 | 61 | 80 | 2.0 | 5.0 | 0.00 | 0.00 | 0.00 | 69 | 1001.1 |
| 20260905132123 | 62 | 85 | 1.0 | 2.0 | 0.00 | 0.00 | 0.00 | 69 | 1001.1 |
| 20260905131035 | 62 | 26 | 1.0 | 3.0 | 0.00 | 0.00 | 0.00 | 71 | 1001.0 |
| 20260905130059 | 62 | 11 | 1.0 | 2.0 | 0.00 | 0.00 | 0.00 | 73 | 1001.0 |
| 20260905125143 | 63 | 89 | 2.0 | 4.0 | 0.00 | 0.00 | 0.00 | 69 | 1000.9 |
| 20260905124035 | 62 | 90 | 2.0 | 3.0 | 0.00 | 0.00 | 0.00 | 69 | 1000.8 |
| 20260905123059 | 62 | 46 | 2.0 | 3.0 | 0.00 | 0.00 | 0.00 | 70 | 1000.9 |
| 20260905122123 | 60 | 330 | 1.0 | 2.0 | 0.00 | 0.00 | 0.00 | 70 | 1000.7 |
| 20260905121035 | 59 | 360 | 1.0 | 3.0 | 0.00 | 0.00 | 0.00 | 73 | 1000.5 |
| 20260905120100 | 62 | 37 | 1.0 | 2.0 | 0.00 | 0.00 | 0.00 | 71 | 1000.6 |
| 20260905115123 | 62 | 21 | 2.0 | 4.0 | 0.00 | 0.00 | 0.00 | 70 | 1000.6 |
| 20260905114035 | 63 | 24 | 2.0 | 3.0 | 0.00 | 0.00 | 0.00 | 67 | 1000.4 |
| 20260905113059 | 60 | 10 | 2.0 | 3.0 | 0.00 | 0.00 | 0.00 | 70 | 1000.3 |
| 20260905112123 | 59 | 355 | 0.0 | 1.0 | 0.00 | 0.00 | 0.00 | 74 | 1000.2 |
| 20260905111035 | 59 | 351 | 3.0 | 3.0 | 0.00 | 0.00 | 0.00 | 73 | 1000.0 |
| 20260905110119 | 61 | 58 | 2.0 | 4.0 | 0.00 | 0.00 | 0.00 | 72 | 999.9 |
| 20260905105125 | 60 | 347 | 2.0 | 3.0 | 0.00 | 0.00 | 0.00 | 75 | 1000.0 |
| 20260905104037 | 58 | 1 | 3.0 | 4.0 | 0.00 | 0.00 | 0.00 | 79 | 999.7 |
| 20260905102125 | 59 | 327 | 1.0 | 2.0 | 0.00 | 0.00 | 0.00 | 78 | 999.6 |
| 20260905101038 | 59 | 11 | 1.0 | 2.0 | 0.00 | 0.00 | 0.00 | 75 | 999.8 |
| 20260905100121 | 60 | 99 | 0.0 | 2.0 | 0.00 | 0.00 | 0.00 | 73 | 999.2 |
| 20260905095125 | 58 | 0.0 | 0.0 | 0.00 | 0.00 | 0.00 | 79 | 999.3 | |
| 20260905094057 | 57 | 0.0 | 0.0 | 0.00 | 0.00 | 0.00 | 76 | 999.1 | |
| 20260905093101 | 59 | 132 | 1.0 | 1.0 | 0.00 | 0.00 | 0.00 | 73 | 999.0 |
| 20260905092145 | 59 | 0.0 | 0.0 | 0.00 | 0.00 | 0.00 | 74 | 998.9 | |
| 20260905091037 | 61 | 144 | 1.0 | 1.0 | 0.00 | 0.00 | 0.00 | 70 | 999.0 |
| 20260905090101 | 64 | 153 | 1.0 | 2.0 | 0.00 | 0.00 | 0.00 | 61 | 998.8 |
| 20260905085145 | 62 | 141 | 1.0 | 2.0 | 0.00 | 0.00 | 0.00 | 64 | 998.8 |
| 20260905084057 | 63 | 144 | 2.0 | 3.0 | 0.00 | 0.00 | 0.00 | 64 | 998.8 |
| 20260905083101 | 62 | 143 | 0.0 | 1.0 | 0.00 | 0.00 | 0.00 | 66 | 998.7 |
| 20260905082125 | 60 | 0.0 | 0.0 | 0.00 | 0.00 | 0.00 | 76 | 998.6 | |
| 20260905081037 | 59 | 0.0 | 0.0 | 0.00 | 0.00 | 0.00 | 79 | 998.8 | |
| 20260905080101 | 59 | 0.0 | 0.0 | 0.00 | 0.00 | 0.00 | 79 | 998.5 | |
| 20260905075125 | 60 | 0.0 | 0.0 | 0.00 | 0.00 | 0.00 | 70 | 998.5 | |
| 20260905074037 | 59 | 152 | 1.0 | 1.0 | 0.00 | 0.00 | 0.00 | 80 | 998.4 |
| 20260905073101 | 59 | 0.0 | 0.0 | 0.00 | 0.00 | 0.00 | 76 | 998.3 | |
| 20260905072125 | 57 | 0.0 | 0.0 | 0.00 | 0.00 | 0.00 | 83 | 998.2 | |
| 20260905071037 | 56 | 0.0 | 0.0 | 0.00 | 0.00 | 0.00 | 87 | 998.2 | |
| 20260905070101 | 55 | 0.0 | 0.0 | 0.00 | 0.00 | 0.00 | 90 | 998.1 | |
| 20260905065125 | 55 | 0.0 | 0.0 | 0.00 | 0.00 | 0.00 | 90 | 998.0 | |
| 20260905064037 | 54 | 0.0 | 0.0 | 0.00 | 0.00 | 0.00 | 90 | 997.9 | |
| 20260905063101 | 53 | 0.0 | 0.0 | 0.00 | 0.00 | 0.00 | 93 | 997.9 | |
| 20260905062125 | 52 | 0.0 | 0.0 | 0.00 | 0.00 | 0.00 | 95 | 997.8 | |
| 20260905061037 | 51 | 0.0 | 0.0 | 0.00 | 0.00 | 0.00 | 95 | 997.9 | |
| 20260905055125 | 50 | 0.0 | 0.0 | 0.00 | 0.00 | 0.00 | 97 | 997.6 | |
| 20260905054037 | 50 | 0.0 | 0.0 | 0.00 | 0.00 | 0.00 | 97 | 997.7 | |
| 20260905053101 | 49 | 277 | 1.0 | 1.0 | 0.00 | 0.00 | 0.00 | 97 | 997.7 |
| 20260905052125 | 50 | 0.0 | 0.0 | 0.00 | 0.00 | 0.00 | 96 | 997.2 | |
| 20260905051037 | 49 | 270 | 0.0 | 1.0 | 0.00 | 0.00 | 0.00 | 96 | 997.3 |
| 20260905045125 | 49 | 0.0 | 0.0 | 0.00 | 0.00 | 0.00 | 94 | 997.4 | |
| 20260905044037 | 49 | 0.0 | 0.0 | 0.00 | 0.00 | 0.00 | 95 | 997.5 | |
| 20260905043101 | 49 | 0.0 | 0.0 | 0.00 | 0.00 | 0.00 | 95 | 997.1 | |
| 20260905042125 | 50 | 264 | 1.0 | 1.0 | 0.00 | 0.00 | 0.00 | 93 | 997.3 |
| 20260905041038 | 52 | 210 | 0.0 | 1.0 | 0.00 | 0.00 | 0.00 | 86 | 997.3 |
| 20260905040100 | 52 | 0.0 | 0.0 | 0.00 | 0.00 | 0.00 | 85 | 996.9 | |
| 20260905035124 | 55 | 144 | 3.0 | 4.0 | 0.00 | 0.00 | 0.00 | 78 | 997.2 |
| 20260905034036 | 55 | 101 | 5.0 | 7.0 | 0.00 | 0.00 | 0.00 | 77 | 996.8 |
| 20260905033101 | 53 | 104 | 4.0 | 5.0 | 0.00 | 0.00 | 0.00 | 81 | 996.8 |
| 20260905032124 | 50 | 139 | 3.0 | 3.0 | 0.00 | 0.00 | 0.00 | 96 | 996.8 |
| 20260905031036 | 49 | 0.0 | 0.0 | 0.00 | 0.00 | 0.00 | 97 | 996.6 | |
| 20260905030120 | 49 | 0.0 | 0.0 | 0.00 | 0.00 | 0.00 | 97 | 996.8 | |
| 20260905025125 | 49 | 0.0 | 0.0 | 0.00 | 0.00 | 0.00 | 96 | 996.6 | |
| 20260905024036 | 49 | 0.0 | 0.0 | 0.00 | 0.00 | 0.00 | 96 | 996.6 | |
| 20260905023100 | 49 | 0.0 | 0.0 | 0.00 | 0.00 | 0.00 | 96 | 996.6 | |
| 20260905022124 | 48 | 0.0 | 0.0 | 0.00 | 0.00 | 0.00 | 98 | 996.7 | |
| 20260905021056 | 48 | 0.0 | 0.0 | 0.00 | 0.00 | 0.00 | 97 | 996.6 | |
| 20260905020100 | 48 | 315 | 1.0 | 2.0 | 0.00 | 0.00 | 0.00 | 98 | 996.4 |
| 20260905015124 | 47 | 0.0 | 0.0 | 0.00 | 0.00 | 0.00 | 98 | 996.5 | |
| 20260905014036 | 47 | 0.0 | 0.0 | 0.00 | 0.00 | 0.00 | 98 | 996.4 | |
| 20260905013100 | 48 | 0.0 | 0.0 | 0.00 | 0.00 | 0.00 | 97 | 996.4 | |
| 20260905012124 | 47 | 295 | 1.0 | 1.0 | 0.00 | 0.00 | 0.00 | 98 | 996.3 |
| 20260905011036 | 47 | 312 | 0.0 | 1.0 | 0.00 | 0.00 | 0.00 | 97 | 996.3 |
| 20260905010100 | 48 | 264 | 0.0 | 1.0 | 0.00 | 0.00 | 0.00 | 97 | 996.4 |
| 20260905005124 | 47 | 310 | 1.0 | 1.0 | 0.00 | 0.00 | 0.00 | 97 | 996.4 |
| 20260905004036 | 47 | 327 | 1.0 | 2.0 | 0.00 | 0.00 | 0.00 | 95 | 996.3 |
| 20260905003100 | 47 | 291 | 2.0 | 4.0 | 0.00 | 0.00 | 0.00 | 95 | 996.4 |
| 20260905002124 | 47 | 304 | 2.0 | 2.0 | 0.00 | 0.00 | 0.00 | 98 | 996.3 |
| 20260905001036 | 46 | 291 | 1.0 | 2.0 | 0.00 | 0.01 | 0.00 | 99 | 996.4 |
| 20260905000100 | 47 | 321 | 1.0 | 1.0 | 0.00 | 0.01 | 0.00 | 98 | 996.3 |
| 20260904235144 | 47 | 311 | 1.0 | 3.0 | 0.00 | 0.01 | 0.00 | 98 | 996.2 |
| 20260904234035 | 47 | 294 | 0.0 | 1.0 | 0.00 | 0.01 | 0.00 | 98 | 996.4 |